Location: Tierz
(42.1336°N, 0.3549°W)
Time: 17:48:10
(UTC+00:00)

Cosmos 2369 - Pass Details

Date: 29 October 2020
Orbit: 841 x 854 km, 71.0° (Epoch: 03 December)

Event Time Altitude Azimuth Distance (km) Brightness Sun altitude
Rises 18:25:11 0° 197° (SSW) 3,407 7.1 -16.6°
Reaches altitude 10° 18:27:38 10° 196° (SSW) 2,474 6.4 -17.0°
Maximum altitude 18:33:18 76° 112° (ESE) 881 3.6 -18.1°
Drops below altitude 10° 18:39:00 10° 27° (NNE) 2,483 5.9 -19.1°
Enters shadow 18:39:21 - 27° (NNE) 2,613 6.0 -19.2°
